Погода в Борисовке

Россия / Челябинская область     54°16′07″N   60°40′16″E
темп.,
°C
ветер,
м/с
пор.,
м/с
влажн.,
%
обл.,
%
осадки,
мм/ч
давл.,
гПа
погр.,
м
20 апреля, вт
вт2023:00−2всв24480 0.0 1034108
02:00−2ссв11450 0.0 103410
05:00−3ссз22470 0.0 103529
08:000с34390 0.0 1035392
11:00+3ссв34305 0.0 10351376
14:00+6ссв22275 0.0 10331535
17:00+7ссз23260 0.0 10321577
20:00+4з22380 0.0 103112
21 апреля, ср
ср2123:00+2зсз34440 0.0 103259
02:00+1зсз33520 0.0 103236
05:000сз33540 0.0 103326
08:00+4зсз22440 0.0 1033187
11:00+8зсз22330 0.0 10331056
14:00+11ссз01290 0.0 10321318
17:00+12ю222833 0.0 10321534
20:00+9ю223847 0.0 103320
22 апреля, чт
чт2223:00+7ю344520 0.0 103454
02:00+5ююз345371 0.0 103445
05:00+4юз3559100 0.0 103671
08:00+6ююз3750100 0.0 1036264
11:00+10ююз5735100 0.0 10361023
14:00+11ююз6832100 0.0 10351315
17:00+10ююз5738100 0.0 10341207
20:00+9ю364799 0.0 1035104
23 апреля, пт
пт2323:00+7ю375385 0.0 1034117
02:00+6ю3860100 0.0 1033143
05:00+6ю3862100 0.0 1033203
08:00+7ююв1263100 0.0 1033161
11:00+10ююз7956100 0.0 10321286
14:00+13ю5747100 0.0 10311851
17:00+13ююв4745100 0.0 10291666
20:00+11ю3454100 0.0 102870
24 апреля, сб
сб2423:00+10ююз4958100 0.0 1027320
02:00+7юз3785100 1.3 1028823
05:00+7всв2483100 1.5 1025124
08:00+7юв3679100 0.4 1024839
11:00+7ююв6979100 0.8 10231012
14:00+9юв6966100 0.8 10201193
17:00+9юв61070100 1.2 10191003
20:00+9ююв71167100 0.3 10171100